CW7536 Weather Reports


Display with metric or nautical units.
time (UTC)temp
F
wind
direction
speed
MPH
gust
MPH
rain 1hr
in
rain 24hr
in
rain mn
in
humidity
%
barometer
mb
20260901043018 72 252 1.0 4.0 0.00 0.00 0.00 1 1017.6
20260901041507 72 220 1.0 3.0 0.00 0.00 0.00 1 1017.5
20260901040003 72 271 1.0 2.0 0.00 0.00 0.00 1 1017.5
20260901034558 72 211 0.0 2.0 0.00 0.00 0.00 1 1017.6
20260901033054 72 240 0.0 3.0 0.00 0.00 0.00 1 1017.7
20260901031556 72 243 0.0 2.0 0.00 0.00 0.00 1 1017.9
20260901030045 72 241 0.0 2.0 0.00 0.00 0.00 1 1017.9
20260901024541 72 257 0.0 0.0 0.00 0.00 0.00 1 1018.0
20260901023041 72 257 0.0 0.0 0.00 0.00 0.00 1 1018.2
20260901021534 72 257 0.0 1.0 0.00 0.00 0.00 1 1018.4
20260901020027 72 257 0.0 0.0 0.00 0.00 0.00 1 1018.3
20260901014523 72 257 0.0 0.0 0.00 0.00 0.00 1 1018.3
20260901013021 73 257 0.0 1.0 0.00 0.00 0.00 1 1018.4
20260901011521 73 257 0.0 0.0 0.00 0.00 0.00 1 1018.4
20260901010017 73 257 0.0 0.0 0.00 0.00 0.00 1 1018.2
20260901004511 72 257 0.0 1.0 0.00 0.00 0.00 1 1018.2
20260901003009 72 261 0.0 0.0 0.00 0.00 0.00 1 1018.2
20260901001502 72 261 0.0 0.0 0.00 0.00 0.00 1 1018.1
20260901000112 73 261 0.0 0.0 0.00 0.00 0.00 1 1018.0
20260831234558 73 261 0.0 0.0 0.00 0.00 0.00 1 1018.2
20260831233050 73 261 0.0 1.0 0.00 0.00 0.00 1 1018.1
20260831231551 74 261 0.0 1.0 0.00 0.00 0.00 1 1018.3
20260831230041 74 255 0.0 2.0 0.00 0.00 0.00 1 1018.3
20260831224536 74 207 0.0 2.0 0.00 0.00 0.00 1 1018.4
20260831223036 75 176 0.0 2.0 0.00 0.00 0.00 1 1018.3
20260831221528 75 226 0.0 2.0 0.00 0.00 0.00 1 1018.3
20260831220024 75 241 0.0 2.0 0.00 0.00 0.00 1 1018.5
20260831214518 75 241 1.0 3.0 0.00 0.00 0.00 3 1018.5
20260831213014 76 198 0.0 2.0 0.00 0.00 0.00 5 1018.5
20260831211510 76 215 0.0 1.0 0.00 0.00 0.00 3 1018.5
20260831210005 76 228 0.0 2.0 0.00 0.00 0.00 1 1018.7
20260831204502 75 254 0.0 2.0 0.00 0.00 0.00 1 1018.7
20260831203059 75 231 0.0 2.0 0.00 0.00 0.00 1 1018.7
20260831201554 74 240 0.0 3.0 0.00 0.00 0.00 1 1018.8
20260831200050 74 220 0.0 1.0 0.00 0.00 0.00 1 1019.0
20260831194615 74 209 0.0 1.0 0.00 0.00 0.00 1 1019.3
20260831193043 75 257 0.0 2.0 0.00 0.00 0.00 1 1019.5
20260831191538 75 219 0.0 2.0 0.00 0.00 0.00 3 1019.6
20260831190033 76 238 0.0 3.0 0.00 0.00 0.00 5 1019.6
20260831184529 76 266 0.0 3.0 0.00 0.00 0.00 6 1019.6
20260831183025 77 230 0.0 3.0 0.00 0.00 0.00 12 1019.5
20260831181521 77 226 0.0 3.0 0.00 0.00 0.00 15 1019.7
20260831180018 78 158 0.0 1.0 0.00 0.00 0.00 16 1019.7
20260831174522 79 74 0.0 2.0 0.00 0.00 0.00 18 1019.8
20260831173006 78 44 0.0 2.0 0.00 0.00 0.00 19 1019.8
20260831171502 78 115 0.0 2.0 0.00 0.00 0.00 17 1019.9
20260831170058 78 210 0.0 2.0 0.00 0.00 0.00 18 1019.9
20260831164559 78 83 0.0 3.0 0.00 0.00 0.00 18 1019.9
20260831163050 79 266 0.0 4.0 0.00 0.00 0.00 17 1019.9
20260831161545 79 234 0.0 3.0 0.00 0.00 0.00 15 1020.0
20260831160040 78 134 2.0 3.0 0.00 0.00 0.00 9 1020.1
20260831154536 78 112 0.0 3.0 0.00 0.00 0.00 10 1020.3
20260831153031 77 222 3.0 4.0 0.00 0.00 0.00 9 1020.4
20260831151527 76 124 0.0 3.0 0.00 0.00 0.00 1 1020.5
20260831150022 74 17 0.0 3.0 0.00 0.00 0.00 1 1020.6
20260831144518 74 53 2.0 4.0 0.00 0.00 0.00 1 1020.6
20260831143024 74 92 2.0 5.0 0.00 0.00 0.00 1 1020.7
20260831141527 72 65 0.0 3.0 0.00 0.00 0.00 1 1020.7
20260831140006 72 89 0.0 4.0 0.00 0.00 0.00 1 1020.6
20260831134502 71 63 0.0 2.0 0.00 0.00 0.00 1 1020.6
20260831133058 71 68 0.0 2.0 0.00 0.00 0.00 1 1020.4
20260831131559 71 74 0.0 2.0 0.00 0.00 0.00 1 1020.4
20260831130054 70 68 0.0 2.0 0.00 0.00 0.00 1 1020.4
20260831124547 70 60 0.0 2.0 0.00 0.00 0.00 1 1020.5
20260831123040 69 86 0.0 1.0 0.00 0.00 0.00 1 1020.5
20260831121536 69 108 0.0 0.0 0.00 0.00 0.00 1 1020.5
20260831120033 69 108 0.0 0.0 0.00 0.00 0.00 1 1020.3
20260831114534 68 108 0.0 0.0 0.00 0.00 0.00 1 1020.4
20260831113022 68 108 0.0 0.0 0.00 0.00 0.00 1 1020.2
20260831111520 68 108 0.0 1.0 0.00 0.00 0.00 1 1019.9
20260831110018 68 108 0.0 0.0 0.00 0.00 0.00 1 1019.8
20260831104511 68 108 0.0 0.0 0.00 0.00 0.00 1 1019.9
20260831103006 68 108 0.0 0.0 0.00 0.00 0.00 1 1019.9
20260831101502 68 108 0.0 0.0 0.00 0.00 0.00 1 1019.5
20260831100108 68 108 0.0 0.0 0.00 0.00 0.00 1 1019.2
20260831094555 68 108 0.0 0.0 0.00 0.00 0.00 1 1019.1
20260831093052 68 108 0.0 0.0 0.00 0.00 0.00 1 1019.0
20260831091548 68 108 0.0 1.0 0.00 0.00 0.00 1 1019.1
20260831090101 69 108 0.0 1.0 0.00 0.00 0.00 1 1019.0
20260831084536 69 109 0.0 1.0 0.00 0.00 0.00 1 1018.7
20260831083033 69 109 0.0 0.0 0.00 0.00 0.00 1 1018.9
20260831081529 69 109 0.0 0.0 0.00 0.00 0.00 1 1019.0
20260831080024 69 109 0.0 2.0 0.00 0.00 0.00 1 1019.0
20260831074519 69 41 0.0 1.0 0.00 0.00 0.00 1 1018.7
20260831073024 69 44 0.0 1.0 0.00 0.00 0.00 1 1018.8
20260831071511 70 44 0.0 0.0 0.00 0.00 0.00 1 1018.9
20260831070006 70 44 0.0 1.0 0.00 0.00 0.00 1 1018.9
20260831064502 70 44 0.0 1.0 0.00 0.00 0.00 1 1019.1
20260831063059 70 45 0.0 0.0 0.00 0.00 0.00 1 1019.2
20260831061600 70 44 0.0 1.0 0.00 0.00 0.00 1 1019.1
20260831054544 70 44 0.0 1.0 0.00 0.00 0.00 1 1019.1
20260831053041 70 15 0.0 2.0 0.00 0.00 0.00 1 1019.3
20260831051538 70 145 0.0 0.0 0.00 0.00 0.00 1 1019.2
20260831050031 70 145 0.0 0.0 0.00 0.00 0.00 1 1019.3
20260831044529 70 145 0.0 0.0 0.00 0.00 0.00 1 1019.3